Location: Eastlake (historical)
(39.0077°N, 122.6678°W)
Time: 03:39:49
(UTC+00:00)

SL-4 R/B - Pass Details

Date: 25 November 2020
Orbit: 428 x 664 km, 51.6° (Epoch: 24 January)

Event Time Altitude Azimuth Distance (km) Brightness Sun altitude
Exits shadow 12:38:14 15° 34° (NE) 1,426 4.4 -28.1°
Drops below altitude 10° 12:39:02 10° 40° (NE) 1,715 4.9 -28.0°
Sets 12:41:14 0° 48° (NE) 2,560 6.0 -27.6°
